Location: Camaret
(48.2753°N, 4.5961°W)
Time: 04:34:41
(UTC+00:00)

Cosmos 292 Rocket - Pass Details

Date: 29 October 2020
Orbit: 673 x 695 km, 74.0° (Epoch: 01 December)

Event Time Altitude Azimuth Distance (km) Brightness Sun altitude
Rises 17:51:03 0° 202° (SSW) 3,028 7.6 -8.4°
Reaches altitude 10° 17:53:19 10° 202° (SSW) 2,121 6.8 -8.8°
Maximum altitude 17:58:07 87° 294° (WNW) 694 3.8 -9.6°
Drops below altitude 10° 18:02:58 10° 22° (NNE) 2,151 6.0 -10.4°
Sets 18:05:18 0° 23° (NNE) 3,075 6.8 -10.8°
